Preview of NWS' New Version of Forecast
This preview is not operational and should not be used for support decisions.

Regional Weather Roundup (RWR)

Issued by National Weather Service (NWS)

                            
000
ASUS43 KMKX 201821
RWRWI 

WISCONSIN REGIONAL WEATHER ROUNDUP
NATIONAL WEATHER SERVICE MILWAUKEE/SULLIVAN WI
100 PM CDT TUE AUG 20 2019

NOTE: "FAIR" INDICATES FEW OR NO CLOUDS BELOW 12,000 FEET WITH NO
SIGNIFICANT WEATHER AND/OR OBSTRUCTIONS TO VISIBILITY.

WIZ001-002-006>008-014>016-023>028-201900-
NORTHWEST WISCONSIN
  
CITY           SKY/WX    TMP DP  RH WIND       PRES   REMARKS
SUPERIOR ARPT  FAIR      76  63  64 SW8       29.93F                  
6HR MIN TEMP:  53; 6HR MAX TEMP:  74; 6HR PCP:  0.15;                

ASHLAND        FAIR      72  61  68 W7        29.93F                  
6HR MIN TEMP:  58; 6HR MAX TEMP:  72; 6HR PCP:  0.23;                

HAYWARD        FAIR      69  60  73 W3        29.95R                  
6HR MIN TEMP:  52; 6HR MAX TEMP:  69; 6HR PCP:  0.28;                

SIREN          FAIR      73  62  70 W7        29.96R                  
6HR MIN TEMP:  62; 6HR MAX TEMP:  70;                                

CUMBERLAND     FAIR      66  59  77 W8        29.94R                  
RICE LAKE      FAIR      65  49  55 NW5       29.93R                  
6HR MIN TEMP:  58; 6HR MAX TEMP:  68; 6HR PCP:  0.27;                

CHETEK         FAIR      64  63  97 CALM      29.89F                  
6HR MIN TEMP:  57; 6HR MAX TEMP:  67; 6HR PCP:  0.15;                

LADYSMITH      FAIR      68  61  76 CALM      29.92F                  
6HR MIN TEMP:  57; 6HR MAX TEMP:  68; 6HR PCP:  0.02;                

EAU CLAIRE     RAIN      65  62  90 S30G37    29.87F FOG              
6HR MIN TEMP:  58; 6HR MAX TEMP:  73; 6HR PCP:  0.45;                

MENOMONIE      FAIR      64  59  85 SE8       29.86R                  
6HR MIN TEMP:  54; 6HR MAX TEMP:  65; 6HR PCP:  0.35;                

NEW RICHMOND   FAIR      68  61  77 SW9       29.96R                  
6HR MIN TEMP:  61; 6HR MAX TEMP:  68; 6HR PCP:  0.13;                

OSCEOLA        FAIR      71  65  82 SW13      29.98R                  
6HR MIN TEMP:  61; 6HR MAX TEMP:  71; 6HR PCP:  0.14;                

$$
 
WIZ003>005-009-010-017-018-201900-
NORTH CENTRAL WISCONSIN
  
CITY           SKY/WX    TMP DP  RH WIND       PRES   REMARKS
MANITOWISH WTR FAIR      71  62  71 S6        29.94S                  
6HR MIN TEMP:  50; 6HR MAX TEMP:  70;                                

ARBOR VITAE    FAIR      72  62  70 S9        29.93F                  
6HR MIN TEMP:  57; 6HR MAX TEMP:  72;                                

WOODRUFF       FAIR      72  62  70 S9        29.93F                  
6HR MIN TEMP:  57; 6HR MAX TEMP:  72;                                

RHINELANDER    FAIR      71  58  63 S5        29.96F                  
6HR MIN TEMP:  54; 6HR MAX TEMP:  72;                                

EAGLE RIVER    FAIR      72  56  57 SW5       29.94F                  
6HR MIN TEMP:  51; 6HR MAX TEMP:  72;                                

LAND O LAKES   FAIR      73  57  56 SW7       29.96F                  
6HR MIN TEMP:  49; 6HR MAX TEMP:  74;                                

PHILLIPS       FAIR      69  61  75 S5        29.93R                  
6HR MIN TEMP:  55; 6HR MAX TEMP:  69;                                

TOMAHAWK       FAIR      69  60  72 CALM      29.95F                  
6HR MIN TEMP:  48; 6HR MAX TEMP:  70;                                

MEDFORD        FAIR      68  60  76 S9        29.91F                  
6HR MIN TEMP:  53; 6HR MAX TEMP:  69;                                

MERRILL        FAIR      73  61  67 CALM      29.95F                  
6HR MIN TEMP:  49; 6HR MAX TEMP:  73;                                

$$
 
WIZ029-030-035-036-043>047-201900-
CENTRAL WISCONSIN
  
CITY           SKY/WX    TMP DP  RH WIND       PRES   REMARKS
WAUSAU         FAIR      73  60  63 VRB3      29.98F                  
6HR MIN TEMP:  54; 6HR MAX TEMP:  76;                                

MOSINEE        PTSUNNY   73  63  68 W6        30.03F                  
MARSHFIELD     FAIR      74  62  66 N7        30.02F                  
6HR MIN TEMP:  56; 6HR MAX TEMP:  77;                                

STEVENS POINT  FAIR      74  62  64 W7        30.01F                  
6HR MIN TEMP:  51; 6HR MAX TEMP:  76;                                

WAUPACA        CLOUDY    80  64  57 W3        30.02R HX  81           
6HR MIN TEMP:  55; 6HR MAX TEMP:  82;                                

WAUTOMA        FAIR      79  66  64 VRB5      30.01R HX  81           
6HR MIN TEMP:  55; 6HR MAX TEMP:  80;                                

WISC RAPIDS    PTSUNNY   77  64  64 VRB5      30.03R                  
6HR MIN TEMP:  61; 6HR MAX TEMP:  78;                                

CAMP DOUGLAS   PTSUNNY   81  70  69 N8        30.02R HX  84           
$$
 
WIZ011>013-019>022-031-037>040-048>050-201900-
NORTHEAST WISCONSIN
  
CITY           SKY/WX    TMP DP  RH WIND       PRES   REMARKS
ANTIGO         FAIR      72  59  63 S10       29.97F                  
6HR MIN TEMP:  52; 6HR MAX TEMP:  74;                                

SHAWANO        FAIR      80  62  53 W8        30.00S HX  81           
6HR MIN TEMP:  56; 6HR MAX TEMP:  79;                                

OCONTO         FAIR      80  62  54 W8        29.98F HX  81           
6HR MIN TEMP:  53; 6HR MAX TEMP:  78;                                

STURGEON BAY   FAIR      78  62  57 SW9       30.00R HX  80           
6HR MIN TEMP:  58; 6HR MAX TEMP:  78;                                

GREEN BAY      FAIR      80  63  55 W6        29.99F HX  81           
6HR MIN TEMP:  58; 6HR MAX TEMP:  80;                                

MANITOWOC      FAIR      76  68  76 SE7       30.00S                  
6HR MIN TEMP:  57; 6HR MAX TEMP:  76;                                

APPLETON       MOSUNNY   79  64  61 SE7       29.99S HX  81           
CLINTONVILLE   FAIR      80  59  49 W6        30.00S HX  81           
6HR MIN TEMP:  54; 6HR MAX TEMP:  80;                                

OSHKOSH        FAIR      78  68  71 VRB3      29.99F HX  80           
6HR MIN TEMP:  60; 6HR MAX TEMP:  78;                                

$$
 
WIZ032>034-041-042-053>061-201900-
SOUTHWEST WISCONSIN
  
CITY           SKY/WX    TMP DP  RH WIND       PRES   REMARKS
LA CROSSE      FAIR      78  64  61 N15G22    30.03R HX  80           
6HR MIN TEMP:  61; 6HR MAX TEMP:  83; 6HR PCP: TRACE;                

SPARTA         FAIR      76  65  68 N14G24    30.04R                  
6HR MIN TEMP:  49; 6HR MAX TEMP:  79;                                

VIROQUA        FAIR      80  69  70 N14G20    30.05R HX  82           
6HR MIN TEMP:  62; 6HR MAX TEMP:  78;                                

BOSCOBEL       FAIR      81  68  64 NE6       29.99R HX  84           
6HR MIN TEMP:  63; 6HR MAX TEMP:  81; 6HR PCP:  0.01;                

PRAIRIE DU CHI FAIR      80  64  57 CALM      30.01R HX  81           
6HR MIN TEMP:  64; 6HR MAX TEMP:  80; 6HR PCP:  0.03;                

PLATTEVILLE    FAIR      78  71  80 N9        30.02R HX  80           
6HR MIN TEMP:  65; 6HR MAX TEMP:  77; 6HR PCP:  0.10;                

$$

WIZ056-057-062-063-064-067-068-201900-
SOUTH CENTRAL WISCONSIN
  
CITY           SKY/WX    TMP DP  RH WIND       PRES   REMARKS
REEDSBURG      FAIR      80  67  64 NW7       30.02R HX  82           
6HR MIN TEMP:  58; 6HR MAX TEMP:  79;                                

BARABOO/DELLS  FAIR      80  65  61 N6        30.02S HX  82           
6HR MIN TEMP:  58; 6HR MAX TEMP:  80;                                

LONE ROCK      FAIR      81  66  60 NW7       30.00R HX  83           
6HR MIN TEMP:  61; 6HR MAX TEMP:  81;                                

MINERAL POINT  FAIR      79  72  78 MISG      30.01R HX  82           
MADISON        PTSUNNY   77  69  76 NE5       29.99R                  
6HR MIN TEMP:  64; 6HR MAX TEMP:  77;                                

MIDDLETON      PTSUNNY   78  12   8 CALM      30.00S                  
6HR MIN TEMP:  61; 6HR MAX TEMP:  78;                                

WATERTOWN      FAIR      76  73  91 E3        30.00R                  
6HR MIN TEMP:  64; 6HR MAX TEMP:  76;                                

MONROE         FOG       70  69  98 NE13      29.97R VSB 1/4          
6HR MIN TEMP:  66; 6HR MAX TEMP:  70; 6HR PCP:  0.02;                

JANESVILLE     LGT RAIN  73  73 100 NE12      29.96F FOG              
$$
 
WIZ051-052-058>065-066-070>072-201900-
SOUTHEAST WISCONSIN
  
CITY           SKY/WX    TMP DP  RH WIND       PRES   REMARKS
MILWAUKEE      CLOUDY    77  69  76 SE5       29.98S                  
6HR MIN TEMP:  72; 6HR MAX TEMP:  78;                                

WAUKESHA       MOSUNNY   75  66  73 E5        29.99F                  
MILWAUKEE/TIMM SUNNY     77  63  61 CALM      29.98F                  
RACINE         LGT RAIN  74  70  87 W5        30.00R FOG              
6HR MIN TEMP:  72; 6HR MAX TEMP:  76; 6HR PCP:  0.01;                

KENOSHA        TSTM      75  74  96 NE7       29.99R FOG              
6HR MIN TEMP:  73; 6HR MAX TEMP:  76; 6HR PCP:  0.06;                

FOND DU LAC    CLOUDY    80  69  69 S3        30.00R HX  83           
6HR MIN TEMP:  62; 6HR MAX TEMP:  80;                                

SHEBOYGAN      PTSUNNY   78  65  63 CALM      29.99F HX  80           
6HR MIN TEMP:  60; 6HR MAX TEMP:  78;                                

WEST BEND      PTSUNNY   77  70  78 CALM      30.00R                  
JUNEAU         CLOUDY    75  71  86 CALM      30.02R                  
6HR MIN TEMP:  61; 6HR MAX TEMP:  76;                                

$$

LSZ147-162-201900-
LAKE SUPERIOR
  
STATION/POSITION TIME  TEMP    WIND        PRES    WAVE
                       AIR SEA DIR/SP/G            HT/PER
                 (UTC) (F)     (DEG/KT/KT) (MB)    (FT/S)
W MID LAKE BUOY  1750   64 63  190/  6/  6 1012.2F   1/ 3
DEVILS ISLAND    1800   68     230/ 13/ 17 1012.8F
SAXON HARBOR     1730   70     220/  6/  8 1013.5R
$$
 
LMZ867-665-643>646-201900-
LAKE MICHIGAN
  
STATION/POSITION TIME  TEMP    WIND        PRES    WAVE
                       AIR SEA DIR/SP/G            HT/PER
                 (UTC)